Погода в Ворожбе

Украина / Сумская область     50°42′50″N   34°38′01″E
темп.,
°C
ветер,
м/с
пор.,
м/с
влажн.,
%
обл.,
%
осадки,
мм/ч
давл.,
гПа
погр.,
м
12 мая, ср
ср1200:00+7всв6138051 0.0 1020673
03:00+9всв7137494 0.1 10191129
06:00+8в7128095 0.1 10201095
09:00+10всв81376100 0.2 10201220
12:00+9всв7138199 0.3 10181250
15:00+9всв598698 0.6 1017796
18:00+10всв698591 1.1 1015742
21:00+8св479580 1.8 1014229
13 мая, чт
чт1300:00+6в4897100 0.6 1013187
03:00+5юв499713 0.6 1013238
06:00+5юв3797100 0.0 1014217
09:00+9ююв4684100 0.0 1015516
12:00+14ю576255 0.0 10141531
15:00+16ю465381 0.1 10141694
18:00+16ююв36648 0.0 10131379
21:00+12вюв227699 0.0 101412
14 мая, пт
пт1400:00+12в3579100 0.0 101376
03:00+11в4109548 0.9 1013217
06:00+12вюв41196100 0.4 1012248
09:00+17юв6108257 0.8 1011524
12:00+22ююв686630 0.0 10101500
15:00+23ю6965100 0.6 10091587
18:00+21ю3775100 1.2 1009280
21:00+16ююз2281100 1.6 100915
15 мая, сб
сб1500:00+14ю118541 0.1 100911
03:00+13ююз22895 0.1 100911
06:00+13ююз349489 0.5 101092
09:00+17юз45801 0.6 1010538
12:00+19юз677189 1.8 10111228
15:00+19юз566997 4.8 10121172
18:00+18зюз467998 1.8 1012781
21:00+14зюз22883 2.3 101313
16 мая, вс
вс1600:00+12ссз228711 0.0 101412
03:00+11всв11854 0.0 101510
06:00+11в22851 0.0 101522
09:00+17всв346963 0.0 1015371
12:00+20всв4556100 0.0 10151143
15:00+21всв5656100 0.0 10141316
18:00+20всв487069 0.0 1013541
21:00+15св4118751 0.0 1013205